Погода в Армавире

Погода в Армавире : погода сейчас, прогноз погоды и архив. Всё, что Вы хотите узнать о погоде в Армавире!

Поиск расширенной информации на нашем сайте:

Другие новости

Новости СМИ2

Главная страница сайта

Новости сайта

02.10.2013

Напоминаем, что на нашем новом сайте вы можете получить высокодетализированные прогнозы погоды по пунктам России, СНГ и мира (включающие важные для авиации метеовеличины, такие как направление и скорость ветра, видимость, явления погоды, количество и форма облачности, нижняя и верхняя граница облачности), а также ознакомиться с разнообразными материалами по авиационной метеорологии и подборкой полезных ссылок на эту тему.

Сайт Метеоцентр.Азия посвящён разработке технологий оптимизации авиаметеорологического обслуживания, включая проектирование и перспективное создание нескольких автоматизированных авиаметеорологических систем:
- система выпуска высокодетальных прогностических карт явлений погоды для нижнего воздушного пространства по России и ближнему зарубежью;
- система верификации прогнозов TAF (выпускаемых синоптиками официальных АМСГ РФ и ближнего зарубежья) и AUTOTAF (выпускаемых сайтом Метеоцентр.Азия) - выявление ошибок, онлайн-сопоставление с фактической погодой METAR, автоматическое внесение коррективов в прогнозы при резком отклонении фактической погоды от прогноза, подсчёт оправдываемости прогнозов по элементам и в целом;
- система обработки, анализа и отображения авиаметеорологической информации для применения провайдерами метеорологической информации.

Рекомендуем: Религия и нравы

Погода в Армавире - сегодня

Время (UTC), дата Ветер
(°,м/с) 
Видим.   Явления Облачность Т
(°С)
Тd
(°С)
f(%) Тe
(°С)
Pmin
(гПа)
dP
(гПа)
Po
(мм)
O2
(г/м3)
Тmin Tmax R s Состояние
почвы
03 26.03.17 300 (СЗ) 10 км  слаб. дождь  10/10 300 м 
[Frnb|Ns]
+5.2 +4.3 94 +6  1015.4  747  295  +5.2       
06 26.03.17 тихо ()   10 км  слаб. дождь  10/10 300 м 
[Frnb|Ns]
+6 +4.6 91 +6  1015.9  0.5  747  294  +5.1         
09 26.03.17 340 (С) 10 км  слаб. дождь  10/10 300 м 
[Frnb|Ns]
+6.5 +3.5 81 +7  1015.2  -0.6  747  293           
12 26.03.17 350 (С) 10 км  слаб. дождь  10/10 300 м 
[Frnb|Ns]
+5.8 +3.8 87 +6  1014.9  -0.4  747  294           
15 26.03.17 330 (СЗ) 10 км  слаб. дождь  10/10 300 м 
[Frnb|Ns]
+5.4 +3.9 90 +6  1014.8  0.1  746  294    +6.7     
18 26.03.17 тихо ()   10 км  дождь  10/10 300 м 
[Frnb|Ns]
+4.7 +3.7 93 +5  1015.1  0.2  747  295           
21 26.03.17 310 (СЗ) 10 км  дождь  10/10 300 м 
[Frnb|Ns]
+3.5 +2.8 95 +3  1015  -0.1  747  297           
00 27.03.17 300 (СЗ) 10 км  в посл. час дождь  10/4 300 м средняя 
[Sc|As op]
+2.8 +1.9 94 +4  1014.5  -0.6  746  297           
03 27.03.17 290 (З) 10 км  слаб. дождь  10/10 300 м 
[Frnb|Ns]
+2.4 +1.5 94 +2  1014.3  -0.2  746  298  +2.3    12     
06 27.03.17 280 (З) 10 км  слаб. дождь  10/10 300 м 
[Frnb|Ns]
+2.2 +1.2 93 +2  1014.8  0.4  746  298  +1.8         
09 27.03.17 260 (З) 10 км  слаб. дождь  10/10 300 м 
[Sc|Ns]
+3.9 +2.1 88 +3  1013.9  -0.7  746  296           
12 27.03.17 260 (З) 10 км  в посл. час дождь  10/9 300 м средняя 
[Sc|As op]
+5 +2.7 85 +3  1012.8  -1  745  294           
15 27.03.17 260 (З) 10 км    10/10 300 м кучево-дожд. 
[Cb cap]
+6.9 +3.1 77 +5  1012.1  -0.6  745  292    +7     
18 27.03.17 260 (З) 4{12}  10 км  {ливн. осадки}  4/0 средняя 
[Ac trans]
+4.9 -1.2 65 +3  1014.1  1.8  746  295           
21 27.03.17 250 (З) 5{15}  10 км    10/0 средняя 
[Ac As]
+3.6 +0.6 81 +1  1015.6  1.4  747  297           
00 28.03.17 260 (З) 6{10}  10 км    10/0 средняя 
[Ac As]
+3.7 +1.6 86 +1  1016.4  0.8  748  297           
03 28.03.17 250 (З) 5{10}  10 км    3/3 300 м 
[Sc]
+3 +0.8 85 +1  1017.5  1.1  748  298  +3    0.1     
06 28.03.17 240 (ЮЗ) 8-12{12}  10 км    1/1 300 м 
[Cu hum]
+6.6 +1.7 71 +4  1017.4  0.1  748  294  +2.7         
09 28.03.17 250 (З) 10-15{17}  10 км    8/8 300 м 
[Cu med, cong]
+10.4 +0.7 51 +8  1015.5  -1.6  747  290           
12 28.03.17 250 (З) 13-19{20}  10 км    9/1 300 м средняя, верхняя 
[Cu hum|Ac cast|Ci]
+11.8 -0.6 42 +9  1012.8  -2.6  745  288           
15 28.03.17 250 (З) 10-15{23}  10 км    1/0 верхняя 
[Ci fib]
+9.8 -1.3 46 +7  1012  -0.8  745  290    +12.1       
18 28.03.17 230 (ЮЗ) 6-12{17}  10 км    ясно 
+7.5 -1.6 52 +5  1012.3  0.1  745  292           
21 28.03.17 240 (ЮЗ) 8-13{16}  10 км    10/0 средняя 
[Ac As]
+8.7 -1.8 48 +6  1012.1  -0.1  745  291           
00 29.03.17 250 (З) 10-17{19}  10 км    10/0 средняя 
[Ac As]
+8.6 -0.2 54 +6  1014.3  2.1  746  291           
03 29.03.17 250 (З) 9-16{18}  10 км    10/10 600 м 
[Sc]
+8 +0.7 60 +5  1016.7  2.4  748  293  +7.3         
Время (UTC), дата Ветер
(°,м/с) 
Видим.   Явления Облачность Т
(°С)
Тd
(°С)
f(%) Тe
(°С)
Pmin
(гПа)
dP
(гПа)
Po
(мм)
O2
(г/м3)
Тmin Tmax R s Состояние
почвы

Для получения пояснительной информации подведите курсор к названию столбца.

ПОГОДА в Армавире - архив

Всё, что Вы хотите узнать о погоде в Армавире - удобно и подробно!

Выберите нужную дату (начиная с 1 января 2015* года) и нажмите кнопку "Найти".
Будут отображены архивные сводки погоды по пункту Армавир, начиная с указанной даты.


Отображать данные в формате CSV (для использования в таблицах Excel)


Внимание! Наш архив погоды предназначен исключительно для личного некоммерческого использования в познавательных целях. Если Вам необходимы официальные справки о состоянии погоды (для производственных, юридических, коммерческих и т.п. целей), обращайтесь в органы Росгидромета.

*Примечание: данная дата относится к архиву по метеостанциям СССР (Россия, СНГ, Балтия).
Архив по метеостанциям Зарубежной Европы и Азии (кроме Китая) хранится 10 дней, по другим регионам земного шара (Китай, Африка, Америка, Австралия, Океания) - 1 день.

Армавир - район местоположения метеостанции


Название, широта, долгота, высота метеостанции:
Армавир 45°ш. 41.1°д. 159 м над ур. моря [Российская Федерация]

Дополнительная информация

В oтличие oт бoльшинства пoгoдных сайтoв мы публикуем пoдрoбную метеoинфoрмацию в детальнoм прoфессиoнальнoм фoрмате.

Характеристики температуры и влажнoсти вoздуха измеряются на высoте 2 м в тени вдали oт зданий и деревьев.
Скoрoсть ветра измеряется на высoте 10 м (на урoвне рoста челoвека скoрoсть ветра ниже в 1.5-2 раза). Если метеoстанция нахoдится в гoрoде или в лесу, тo скoрoсть ветра занижена на 2-4 м/с пo сравнению с oткрытым местoм. Скoрoсть ветра над акватoриями крупных рек и oзёр, а также на вершинах хoлмoв на 2-5 м/с выше, чем в oбычных услoвиях.
Атмoсфернoе давление в разных тoчках местнoсти мoжет значительнo oтличаться oт давления на метеoстанции, в зависимoсти oт услoвий рельефа (при пoдъёме на 10 м давление пoнижается примернo на 1 мм рт.ст.).